CZ-6A DEB, 55512

Orbit data source: Space-Track

CZ-6A DEB, 55512 is space debris in SSO originally from a launch on Fri, 11 Nov 2022 UTC launched from the Taiyaun Space Center, China (TSC). Debris objects in space refer to the collection of defunct objects orbiting the Earth. Examples of debris include non-operational satellites, rocket bodies, and fragments generated from explosions, collisions, or faulty payload assembly.

Loading next visibility...
Identifier
55512, 2022-151XJ
Orbit
SSO
Country
Flag of CNCN / PRC
Related business
Manufacturer
SAST
Mission
Spacecraft
Bus & Motor
Unknown
Mass
Unknown
Launch date (UTC)
2022-11-11 (4 years ago)
Launch vehicle
Unknown
Launch site
Taiyaun Space Center, China (TSC)
Object type
Payload
Rocket body
Debris
Shape & HBR
Unknown shape, 1.1 m
Radar Cross Section
Medium (>0.1 m² and <1 m²)

Expand to show TLE details & history
Last TLE update: 3 days ago

TLE from 3 days ago
0 CZ-6A DEB
1 55512U 22151XJ  26170.99949210  .00007047  00000-0  21786-2 0  9992
2 55512  98.6823 186.3770 0054173 123.0174 237.6236 14.40731991168357
Epoch: 2026-06-19T23:59Z
TLE epoch observation values (Epoch: 2026-06-19T23:59:16.117Z)
Latitude
Longitude
-81.66057°
Altitude
779.873 km
Speed
7.453 km/s
True Right ascension
12h 25m 30s
True Declination
0° 00' 00"
Sunlit
Object was in daylight at epoch
Visualization orbit readout
Latitude
Unknown
Longitude
Unknown
Altitude
Unknown
Speed
Unknown
Apparent Right ascension
Unknown
Apparent Declination
Unknown
Sunlit
N/A
Visualization observer readout
Local Sidereal Time
00:34:19
Azimuth
Unknown
Elevation
Unknown
Doppler factor
Unknown
Orbital elements
Apogee altitude
791.843 km
Perigee altitude
714.578 km
Semi-major axis
7,131.347 km
Eccentricity
0.00542
Inclination
98.6823°
RAAN
186.377°
Arg. of periapsis
123.0174°
True anomaly
237.10123°
Mean anomaly
237.6236°
Eccentric anomaly
237.36222°
Mean motion
3.60401 °/min
Orbital period
99.89 mins
BSTAR
0.0021786
Loading maneuver chart data...
Computing Atmospheric mass density...
Loading historical data...
Loading historical data...
Loading historical data...
Loading historical data...
Loading historical data...
Loading historical data...
Loading historical data...

Documentation

Showing up to 5 results
|